Weather in Tabanan

Indonesia     8°32′13″S   115°07′30″E
temp.,
°C
wind,
m/s
gust,
m/s
humid.,
%
clouds,
%
prec.,
mm/h
press.,
hPa
HPBL,
m
15 may, sat
sat1523:00+23ene149586 0.3 1011109
02:00+23e1697100 0.8 1010247
05:00+22ese179842 0.8 1010279
08:00+24ese269229 1.6 1011607
11:00+26ese347468 0.5 1011979
14:00+27se446777 0.8 10091076
17:00+25se357892 0.1 1008743
20:00+23e158989 0.2 1010264
16 may, sun
sun1623:00+23e159172 0.3 1011185
02:00+22e139733 0.7 101088
05:00+22e129746 0.6 101060
08:00+24ese259125 1.6 1011486
11:00+27se347447 1.0 1011951
14:00+27se447074 1.4 10081081
17:00+25se368455 0.5 1008655
20:00+23ese268881 0.6 1010438
17 may, mon
mon1723:00+22ene129539 0.3 101170
02:00+22e139745 0.8 101086
05:00+22ese159798 0.7 1010216
08:00+23ese269372 1.6 1011473
11:00+25ese268588 1.1 1011694
14:00+27se347171 1.8 10081013
17:00+25ese2585100 0.6 1009598
20:00+23e1391100 0.7 1011107
18 may, tue
tue1823:00+23e1294100 0.3 101292
02:00+23e1295100 0.6 101088
05:00+23e1396100 0.4 1010127
08:00+24ese1489100 0.7 1012329
11:00+27se2374100 0.3 1011870
14:00+26se3376100 0.7 1008757
17:00+25se2481100 0.4 1009632
20:00+23ene1495100 0.6 1011166
19 may, wed
wed1923:00+23ese139568 0.3 1011112
02:00+23e1495100 0.7 1010150
05:00+22ene119763 0.1 101045
08:00+24ese159072 0.2 1011476
11:00+26ese248163 0.8 1011763
14:00+26se347962 2.8 1009795
17:00+26ese247899 1.3 1009685
20:00+23ne1297100 2.0 101151